User: anonymous   Login
Location: Unspecified
(0.0000°N, 0.0000°E)
Time: 23:34:11
(UTC+00:00)
Language:

METEOR-M - Orbit

View from above orbital plane
View from above orbital plane
View from above satellite
View from above satellite

Ground track
Ground track

The orbit data is extracted from the following two-line orbital elements,

1 35865U 09049A   16120.11418721  .00000013  00000-0  24646-4 0  9994
2 35865  98.4606 153.4173 0001158 276.9365  83.1681 14.22063665343247
Epoch (UTC): 29 April 2016 02:44:25
Eccentricity: 0.0001158
inclination: 98.4606°
perigee height: 817 km
apogee height: 819 km
right ascension of ascending node: 153.4173°
argument of perigee: 276.9365°
revolutions per day: 14.22063665
mean anomaly at epoch: 83.1681°
orbit number at epoch: 34324

The dashed part of the orbit path shows where the satellite is in the earth's shadow,  

DLR